Regional Weather Roundup
Issued by NWS

Home | Current Version | Previous Version | Graphics & Text | Print | Product List | Glossary On
Versions: 1 2 3 4 5 6 7 8 9 10 11 12 13 14 15 16 17 18 19 20 21 22 23 24 25 26 27 28 29 30 31 32 33 34 35 36 37 38 39 40 41 42 43 44 45 46 47 48 49 50
946
ASUS43 KLOT 272103
RWRIL

ILLINOIS REGIONAL WEATHER ROUNDUP
NATIONAL WEATHER SERVICE CHICAGO/ROMEOVILLE IL
400 PM CDT TUE SEP 27 2016

NOTE: "FAIR" INDICATES FEW OR NO CLOUDS BELOW 12,000 FEET WITH NO
SIGNIFICANT WEATHER AND/OR OBSTRUCTIONS TO VISIBILITY.

* THESE STATIONS ARE NOT UNDER NWS QUALITY CONTROL. THEY ALSO MAY NOT
  REPORT WEATHER SUCH AS PRECIPITATION OR FOG.

ILZ001-002-007-009-015-016-024-272200-
NORTHWEST ILLINOIS

CITY           SKY/WX    TMP DP  RH WIND       PRES   REMARKS
MOLINE         SUNNY     74  34  23 W20G28    29.77F
STERLING*      CLOUDY    69  34  27 W23G29    29.76F
$$

ILZ003-004-008-010-011-017-018-272200-
NORTH CENTRAL ILLINOIS

CITY           SKY/WX    TMP DP  RH WIND       PRES   REMARKS
ROCKFORD       PTSUNNY   67  35  30 W20G29    29.76F
FREEPORT*      SUNNY     67  36  31 W20G29    29.77S
ROCHELLE*      PTSUNNY   66  36  32 W17       29.77F
$$

ILZ005-006-012>014-019>023-272200-
NORTHEAST ILLINOIS

CITY           SKY/WX    TMP DP  RH WIND       PRES   REMARKS
CHICAGO-OHARE  PTSUNNY   68  35  29 W17G25    29.74S
CHICAGO-MIDWAY PTSUNNY   70  31  23 W13G25    29.75S
AURORA         MOSUNNY   69  32  25 W20G28    29.76S
LANSING*       CLOUDY    70  37  29 W17G24    29.75F
JOLIET*        SUNNY     73  32  22 W10G18    29.76F
WAUKEGAN       CLOUDY    67  41  38 NW12G20   29.72S
DUPAGE AIRPORT MOSUNNY   69  34  27 W15       29.74F
KANKAKEE*      SUNNY     74  26  16 W15G28    29.77F
WHEELING       PTSUNNY   67  34  29 W17G23    29.74S
MORRIS*        SUNNY     72  30  20 W13G24    29.75F
ROMEOVILLE*    MOSUNNY   70  38  31 W18G26    29.76S
NORTHERLY ISL    N/A     69  31  24 W8          N/A
$$

LMZ740>746-272200-
SOUTHERN LAKE MICHIGAN

STATION/POSITION SKY/WX   TEMP    WIND        PRES    VSBY  WAVE
                          AIR SEA DIR/SP/G                  HT/PER
                          (F)     (DEG/KT/KT) (MB)    (MI)  (FT/S)
SOUTHERN BUOY              60 70  300/ 16/ 19 1006.1          4/ 5
WILMETTE HARBOR            64 60  300/ 16/ 19   N/A           3/ 3
HARRISON CRIB              68     280/ 22/ 26   N/A
BURNHAM HARBOR             69     250/ 12/ 17   N/A
CALUMET HARBOR             69     250/  9/ 16 1006.8F
BURNS HARBOR               67     260/ 17/ 20 1007.8S
MICHIGAN CITY              67     240/ 21/ 22   N/A
MICHIGAN CITY 6N           68 67  270/ 16/ 21   N/A           5/ 5
ST. JOSEPH                 67 66  270/ 17/ 23 1007.1F         7/ 6
$$

ILZ025>027-034>036-040-047-049-050-058-095>099-272200-
WEST-CENTRAL ILLINOIS

CITY           SKY/WX    TMP DP  RH WIND       PRES   REMARKS
QUINCY         SUNNY     77  41  27 W16G25    29.84F
GALESBURG*     SUNNY     73  35  24 W17G24    29.80F
MACOMB*        SUNNY     76  32  19 W16G24    29.84F
JACKSONVILLE*  SUNNY     78  41  26 W15G24    29.83F
PITTSFIELD*    MOSUNNY   78  46  31 W13G24    29.85F
$$

ILZ028>032-037-038-041>044-048-051>054-059>061-272200-
CENTRAL ILLINOIS

CITY           SKY/WX    TMP DP  RH WIND       PRES   REMARKS
PONTIAC        SUNNY     75  30  18 W24G30    29.79F
BLOOMINGTON    SUNNY     74  33  22 W18G24    29.81F
DECATUR        SUNNY     77  38  24 W14G23    29.83F
PEORIA         SUNNY     74  30  19 W16G26    29.80F
LACON*         SUNNY     74  26  17 W10G21    29.78S
LINCOLN*       SUNNY     76  39  26 W6G17     29.82F
SPRINGFIELD    SUNNY     79  37  22 W17G25    29.83F
TAYLORVILLE    SUNNY     77  43  29 W17       29.84F
$$

ILZ033-039-045-046-055>057-062-063-272200-
EAST-CENTRAL ILLINOIS

CITY           SKY/WX    TMP DP  RH WIND       PRES   REMARKS
CHAMPAIGN      SUNNY     76  35  22 W16G26    29.82F
RANTOUL*       SUNNY     77  33  20 W16G24    29.80F
MATTOON        LGT RAIN  77  40  26 W18G25    29.83F
PARIS*         SUNNY     77  41  27 W6        29.83F
$$

ILZ079-100>102-272200-
SOUTHWEST ILLINOIS

CITY           SKY/WX    TMP DP  RH WIND       PRES   REMARKS
BELLEVILLE     SUNNY     79  47  32 W12G22    29.86F
CAHOKIA*       SUNNY     80  43  26 W8G17     29.87F
SPARTA*        SUNNY     77  49  37 W12G17    29.91F
$$

ILZ064>066-069>071-074>076-080>082-084>086-088>090-092>094-272200-
SOUTH-CENTRAL ILLINOIS

CITY           SKY/WX    TMP DP  RH WIND       PRES   REMARKS
CARBONDALE     SUNNY     77  50  38 W8        29.91F
EFFINGHAM*     SUNNY     77  48  35 W13       29.87F
MARION         SUNNY     77  50  38 W15       29.92F
MT. VERNON     SUNNY     77  45  31 W6        29.89F
CENTRALIA*     SUNNY     79  49  34 W9G17     29.87F
SALEM*         SUNNY     79  43  27 W14G20    29.88F
METROPOLIS*    SUNNY     79  47  31 SW6       29.93F
$$

ILZ067-068-072-073-078-083-087-091-272200-
SOUTHEAST ILLINOIS

CITY           SKY/WX    TMP DP  RH WIND       PRES   REMARKS
LAWRENCEVILLE  SUNNY     78  46  32 W15G25    29.86F
FLORA*         SUNNY     79  46  31 W8G16     29.87F
FAIRFIELD*     SUNNY     77  44  31 W6        29.87F
HARRISBURG*    SUNNY     78  50  37 W13       29.91F
ROBINSON*      SUNNY     77  45  32 W13G20    29.86S
CARMI*         SUNNY     78  51  39 SW14      29.88F
$$

ABBREVIATIONS USED IN REMARKS
   TC - TEMPERATURE IN CELSIUS
  WCI - WIND CHILL INDEX
   HX - HEAT INDEX
  VSB - VISIBILITY
$$





USA.gov is the U.S. government's official web portal to all federal, state and local government web resources and services.